Location: Isle of Man Observatory
(54.1776°N, 4.6264°W)
Time: 07:52:58
(UTC+02:00)

Envisat - Pass Details

Date: 23 May 2026
Orbit: 761 x 763 km, 98.4° (Epoch: 11 June)

Event Time Altitude Azimuth Distance (km) Brightness Sun altitude
Rises 04:05:29 0° 22° (NNE) 3,238 8.4 -11.6°
Reaches altitude 10° 04:08:08 10° 34° (NE) 2,306 7.0 -11.4°
Maximum altitude 04:12:27 28° 93° (E) 1,421 4.7 -11.1°
Drops below altitude 10° 04:16:45 10° 151° (SSE) 2,291 5.2 -10.8°
Enters shadow 04:18:51 - 161° (SSE) 3,027 5.7 -10.7°
